Location: Palmerston North
(40.3500°S, 175.6170°E)
Time: 16:16:37
(UTC+12:00)

Meteor 2-21 - Pass Details

Date: 24 January 2019
Orbit: 934 x 966 km, 82.6° (Epoch: 17 April)

Event Time Altitude Azimuth Distance (km) Brightness Sun altitude
Exits shadow 23:43:33 61° 53° (NE) 1,067 4.4 -25.5°
Maximum altitude 23:44:12 65° 86° (E) 1,033 4.4 -25.6°
Drops below altitude 10° 23:50:15 10° 166° (SSE) 2,678 7.4 -26.1°
Sets 23:52:46 0° 169° (SSE) 3,630 8.3 -26.3°
